Rechercher aéroport 
image banner adimage banner adimage banner ad
image banner ad

CN39 - Operating Engineers Pension Trust Bldg

Situé à Los Angeles, United States

ICAO - CN39, IATA -

Données fournies par Airmate  

Information générale

Coordonnées: N34°3'43" W118°17'28"
Élévation : 441 feet MSL.
Variation magnétique : 14° East
Voir autres Aéroports à California

Données opérationnelles

Special qualification required
Heure actuelle UTC:
Heure actuelle locale:
Météo à : KSMO - Santa Monica Muni ( 16 km )
METAR: KSMO 270351Z AUTO VRB04KT 10SM OVC009 19/16 A2996 RMK AO2 SLP143 T01890161
TAF: KSMO 270302Z 2703/2724 VRB03KT P6SM OVC010 FM270800 VRB03KT P6SM OVC008 FM271600 VRB03KT P6SM BKN012 FM271800 24009KT P6SM SKC
Voir NOTAMs / SUP AIP / TFR affectant cet aéroport [VIEW]
Fréquences de communication: [VIEW]

Pistes:

Coordonnées de l'aéroport

Adresse: Los Angeles United States

Vue satellite de CN39